User: anonymous   Login
Location: Pine Mountain Observatory
(43.7910°N, 120.9377°W)
Time: 09:01:30
(UTC-08:00)
Language:

Cosmos 1867 - Orbit

View from above orbital plane
View from above orbital plane
View from above satellite
View from above satellite

Ground track
Ground track

The orbit data is extracted from the following two-line orbital elements,

1 18187U 87060A   14327.17326272  .00000009  00000-0  41319-4 0  2278
2 18187 065.0115 331.0499 0013714 269.3076 090.6437 14.31034996429917
Epoch (UTC): 23 November 2014 04:09:29
Eccentricity: 0.0013714
inclination: 65.0115°
perigee height: 778 km
apogee height: 798 km
right ascension of ascending node: 331.0499°
argument of perigee: 269.3076°
revolutions per day: 14.31034996
mean anomaly at epoch: 90.6437°
orbit number at epoch: 42991

The dashed part of the orbit path shows where the satellite is in the earth's shadow,  

DLR